Voltar ao catálogo

STARLINK-4279

AtivoComunicaçõesVLEO
NORAD 53018·PAYLOAD·🇺🇸 United States

Lançado Jul 7, 2022 de Cape Canaveral Space Force Station

Loading…

Próximas Passagens (próximas 24 horas)

TLE

AtualizadoSource: CelesTrak SupGP

Época: Sep 14, 2026, 21:44 UTC

1 53018C 22076AJ  26257.90604167  .00672360  00000+0  22483-1 0  2579
2 53018  53.1590 280.4239 0001284  93.6908 238.1059 15.30110832    13

Acompanhe STARLINK-4279 em tempo real com AllMySat

Download on the App Store